| time (UTC) | temp F | wind direction | speed MPH | gust MPH | rain 1hr in | rain 24hr in | rain mn in | humidity % | barometer mb |
| 20260831231905 | 77 | 0 | 0.0 | 0.0 | 0.00 | 0.46 | 0.01 | 74 | 1009.8 |
| 20260831231128 | 77 | 0 | 0.0 | 1.0 | 0.00 | 0.46 | 0.01 | 73 | 1010.0 |
| 20260831231121 | 78 | 111 | 0.0 | 1.0 | 0.00 | 0.46 | 0.01 | 72 | 1010.1 |
| 20260831230903 | 77 | 0 | 0.0 | 0.0 | 0.00 | 0.46 | 0.01 | 74 | 1009.8 |
| 20260831225903 | 77 | 0 | 0.0 | 1.0 | 0.00 | 0.46 | 0.01 | 73 | 1010.0 |
| 20260831224904 | 78 | 111 | 0.0 | 1.0 | 0.00 | 0.46 | 0.01 | 72 | 1010.1 |
| 20260831223914 | 78 | 0 | 0.0 | 1.0 | 0.00 | 0.46 | 0.01 | 69 | 1010.2 |
| 20260831223903 | 78 | 112 | 0.0 | 1.0 | 0.00 | 0.46 | 0.01 | 70 | 1010.0 |
| 20260831222905 | 78 | 111 | 0.0 | 1.0 | 0.00 | 0.46 | 0.01 | 69 | 1010.0 |
| 20260831221904 | 78 | 0 | 0.0 | 1.0 | 0.00 | 0.46 | 0.01 | 69 | 1010.1 |
| 20260831220904 | 78 | 0 | 0.0 | 1.0 | 0.00 | 0.46 | 0.01 | 69 | 1010.2 |
| 20260831220716 | 78 | 0 | 0.0 | 1.0 | 0.00 | 0.46 | 0.01 | 70 | 1010.3 |
| 20260831215905 | 78 | 111 | 0.0 | 1.0 | 0.00 | 0.46 | 0.01 | 69 | 1010.2 |
| 20260831214906 | 78 | 0 | 0.0 | 0.0 | 0.00 | 0.46 | 0.01 | 71 | 1010.1 |
| 20260831213905 | 78 | 0 | 0.0 | 1.0 | 0.00 | 0.46 | 0.01 | 70 | 1010.3 |
| 20260831212905 | 78 | 131 | 0.0 | 2.0 | 0.00 | 0.46 | 0.01 | 69 | 1010.3 |
| 20260831211904 | 78 | 47 | 0.0 | 1.0 | 0.00 | 0.46 | 0.01 | 69 | 1010.4 |
| 20260831210905 | 78 | 72 | 0.0 | 2.0 | 0.00 | 0.46 | 0.01 | 69 | 1010.4 |
| 20260831210318 | 78 | 0 | 0.0 | 2.0 | 0.00 | 0.46 | 0.01 | 70 | 1010.7 |
| 20260831205904 | 77 | 61 | 0.0 | 1.0 | 0.00 | 0.46 | 0.01 | 70 | 1010.4 |
| 20260831204904 | 78 | 0 | 0.0 | 2.0 | 0.00 | 0.46 | 0.01 | 70 | 1010.7 |
| 20260831203903 | 78 | 0 | 0.0 | 2.0 | 0.00 | 0.46 | 0.01 | 70 | 1010.7 |
| 20260831202904 | 78 | 33 | 0.0 | 2.0 | 0.00 | 0.47 | 0.01 | 66 | 1010.8 |
| 20260831201904 | 78 | 33 | 0.0 | 2.0 | 0.00 | 0.47 | 0.01 | 66 | 1010.8 |
| 20260831200903 | 78 | 46 | 0.0 | 2.0 | 0.00 | 0.47 | 0.01 | 67 | 1010.9 |
| 20260831195924 | 78 | 65 | 1.0 | 2.0 | 0.00 | 0.47 | 0.01 | 67 | 1011.0 |
| 20260831195904 | 78 | 51 | 1.0 | 3.0 | 0.00 | 0.47 | 0.01 | 67 | 1010.9 |
| 20260831194904 | 77 | 63 | 1.0 | 2.0 | 0.00 | 0.47 | 0.01 | 68 | 1011.0 |
| 20260831193904 | 78 | 65 | 1.0 | 2.0 | 0.00 | 0.47 | 0.01 | 67 | 1011.0 |
| 20260831192906 | 78 | 74 | 1.0 | 2.0 | 0.00 | 0.47 | 0.01 | 67 | 1011.0 |
| 20260831192723 | 78 | 88 | 2.0 | 5.0 | 0.00 | 0.47 | 0.01 | 66 | 1011.1 |
| 20260831192710 | 79 | 72 | 1.0 | 3.0 | 0.00 | 0.47 | 0.01 | 65 | 1011.4 |
| 20260831191904 | 78 | 102 | 0.0 | 2.0 | 0.00 | 0.47 | 0.01 | 66 | 1011.2 |
| 20260831190903 | 78 | 88 | 2.0 | 5.0 | 0.00 | 0.47 | 0.01 | 66 | 1011.1 |
| 20260831185905 | 79 | 72 | 1.0 | 3.0 | 0.00 | 0.47 | 0.01 | 65 | 1011.4 |
| 20260831185524 | 78 | 73 | 1.0 | 2.0 | 0.00 | 0.47 | 0.01 | 66 | 1011.4 |
| 20260831184904 | 79 | 46 | 0.0 | 1.0 | 0.00 | 0.47 | 0.01 | 65 | 1011.5 |
| 20260831183904 | 78 | 73 | 1.0 | 2.0 | 0.00 | 0.47 | 0.01 | 66 | 1011.4 |
| 20260831182905 | 78 | 53 | 1.0 | 2.0 | 0.00 | 0.47 | 0.01 | 65 | 1011.5 |
| 20260831181905 | 79 | 94 | 0.0 | 2.0 | 0.00 | 0.47 | 0.01 | 66 | 1011.4 |
| 20260831180904 | 78 | 87 | 1.0 | 3.0 | 0.00 | 0.47 | 0.01 | 66 | 1011.6 |
| 20260831175906 | 78 | 60 | 2.0 | 5.0 | 0.00 | 0.47 | 0.01 | 65 | 1011.7 |
| 20260831174904 | 79 | 108 | 2.0 | 5.0 | 0.00 | 0.47 | 0.01 | 65 | 1011.6 |
| 20260831173907 | 79 | 104 | 1.0 | 3.0 | 0.00 | 0.47 | 0.01 | 63 | 1011.6 |
| 20260831172905 | 79 | 146 | 2.0 | 5.0 | 0.00 | 0.47 | 0.01 | 64 | 1011.6 |
| 20260831171907 | 79 | 36 | 2.0 | 4.0 | 0.00 | 0.47 | 0.01 | 63 | 1011.6 |
| 20260831170904 | 79 | 130 | 0.0 | 4.0 | 0.00 | 0.47 | 0.01 | 63 | 1011.6 |
| 20260831165904 | 79 | 205 | 2.0 | 4.0 | 0.00 | 0.47 | 0.01 | 64 | 1011.7 |
| 20260831164904 | 78 | 268 | 1.0 | 3.0 | 0.00 | 0.47 | 0.01 | 65 | 1011.7 |
| 20260831163905 | 77 | 156 | 2.0 | 5.0 | 0.00 | 0.47 | 0.01 | 67 | 1011.7 |
| 20260831162950 | 76 | 56 | 0.0 | 3.0 | 0.00 | 0.47 | 0.01 | 67 | 1011.8 |
| 20260831162909 | 76 | 56 | 0.0 | 3.0 | 0.00 | 0.47 | 0.01 | 67 | 1011.8 |
| 20260831161939 | 77 | 52 | 1.0 | 3.0 | 0.00 | 0.47 | 0.01 | 69 | 1012.0 |
| 20260831161904 | 77 | 52 | 1.0 | 3.0 | 0.00 | 0.47 | 0.01 | 69 | 1012.0 |
| 20260831160905 | 76 | 121 | 1.0 | 4.0 | 0.00 | 0.47 | 0.01 | 70 | 1011.9 |
| 20260831155905 | 76 | 106 | 1.0 | 4.0 | 0.00 | 0.47 | 0.01 | 70 | 1011.9 |
| 20260831154906 | 76 | 177 | 1.0 | 3.0 | 0.00 | 0.47 | 0.01 | 68 | 1011.9 |
| 20260831153908 | 76 | 147 | 1.0 | 2.0 | 0.00 | 0.47 | 0.01 | 69 | 1011.8 |
| 20260831152905 | 75 | 50 | 1.0 | 3.0 | 0.00 | 0.47 | 0.01 | 72 | 1011.9 |
| 20260831151905 | 75 | 71 | 1.0 | 3.0 | 0.00 | 0.47 | 0.01 | 72 | 1012.2 |
| 20260831151116 | 73 | 86 | 1.0 | 3.0 | 0.00 | 0.47 | 0.01 | 77 | 1012.3 |
| 20260831150904 | 74 | 56 | 0.0 | 3.0 | 0.00 | 0.47 | 0.01 | 75 | 1012.2 |
| 20260831145904 | 74 | 98 | 0.0 | 2.0 | 0.00 | 0.47 | 0.01 | 76 | 1012.1 |
| 20260831144904 | 73 | 86 | 1.0 | 3.0 | 0.00 | 0.47 | 0.01 | 77 | 1012.3 |
| 20260831143908 | 72 | 71 | 1.0 | 2.0 | 0.00 | 0.47 | 0.01 | 81 | 1012.2 |
| 20260831143906 | 73 | 61 | 0.0 | 2.0 | 0.00 | 0.47 | 0.01 | 77 | 1012.2 |
| 20260831142905 | 73 | 63 | 1.0 | 2.0 | 0.00 | 0.47 | 0.01 | 77 | 1012.2 |
| 20260831141904 | 73 | 68 | 1.0 | 3.0 | 0.00 | 0.47 | 0.01 | 77 | 1012.2 |
| 20260831140904 | 72 | 71 | 1.0 | 2.0 | 0.00 | 0.47 | 0.01 | 81 | 1012.2 |
| 20260831135905 | 72 | 91 | 1.0 | 3.0 | 0.00 | 0.47 | 0.01 | 80 | 1012.0 |
| 20260831134904 | 72 | 100 | 1.0 | 4.0 | 0.00 | 0.47 | 0.01 | 81 | 1012.0 |
| 20260831133905 | 71 | 64 | 0.0 | 3.0 | 0.00 | 0.47 | 0.01 | 82 | 1012.2 |
| 20260831132904 | 71 | 59 | 1.0 | 3.0 | 0.00 | 0.47 | 0.01 | 83 | 1012.1 |
| 20260831131904 | 70 | 56 | 1.0 | 3.0 | 0.00 | 0.47 | 0.01 | 84 | 1012.1 |
| 20260831130906 | 70 | 43 | 0.0 | 3.0 | 0.00 | 0.47 | 0.01 | 86 | 1012.1 |
| 20260831125957 | 70 | 41 | 1.0 | 3.0 | 0.00 | 0.47 | 0.01 | 86 | 1012.2 |
| 20260831125908 | 70 | 41 | 1.0 | 3.0 | 0.00 | 0.47 | 0.01 | 86 | 1012.2 |
| 20260831124945 | 70 | 30 | 0.0 | 1.0 | 0.00 | 0.47 | 0.01 | 87 | 1012.1 |
| 20260831124904 | 70 | 30 | 0.0 | 1.0 | 0.00 | 0.47 | 0.01 | 87 | 1012.1 |
| 20260831123905 | 70 | 26 | 1.0 | 2.0 | 0.00 | 0.47 | 0.01 | 88 | 1012.1 |
| 20260831123107 | 69 | 0 | 0.0 | 2.0 | 0.00 | 0.47 | 0.01 | 90 | 1012.0 |
| 20260831122904 | 69 | 26 | 0.0 | 1.0 | 0.00 | 0.47 | 0.01 | 90 | 1012.1 |
| 20260831121904 | 69 | 12 | 0.0 | 2.0 | 0.00 | 0.47 | 0.01 | 89 | 1012.0 |
| 20260831120946 | 69 | 0 | 0.0 | 2.0 | 0.00 | 0.47 | 0.01 | 90 | 1012.0 |
| 20260831120903 | 69 | 0 | 0.0 | 2.0 | 0.00 | 0.47 | 0.01 | 90 | 1012.0 |
| 20260831115904 | 68 | 0 | 0.0 | 0.0 | 0.00 | 0.47 | 0.01 | 91 | 1011.9 |
| 20260831114952 | 68 | 0 | 0.0 | 0.0 | 0.00 | 0.47 | 0.01 | 92 | 1011.7 |
| 20260831114909 | 68 | 0 | 0.0 | 0.0 | 0.00 | 0.47 | 0.01 | 92 | 1011.7 |
| 20260831112905 | 68 | 0 | 0.0 | 0.0 | 0.00 | 0.47 | 0.01 | 91 | 1011.4 |
| 20260831112707 | 67 | 30 | 0.0 | 1.0 | 0.00 | 0.47 | 0.01 | 92 | 1011.2 |
| 20260831112658 | 67 | 30 | 0.0 | 1.0 | 0.00 | 0.47 | 0.01 | 92 | 1011.3 |
| 20260831111903 | 68 | 0 | 0.0 | 1.0 | 0.00 | 0.47 | 0.01 | 91 | 1011.3 |
| 20260831110904 | 67 | 30 | 0.0 | 1.0 | 0.00 | 0.47 | 0.01 | 92 | 1011.2 |
| 20260831105905 | 67 | 30 | 0.0 | 1.0 | 0.00 | 0.47 | 0.01 | 92 | 1011.3 |
| 20260831105512 | 67 | 12 | 0.0 | 1.0 | 0.00 | 0.47 | 0.01 | 91 | 1011.3 |
| 20260831104954 | 67 | 21 | 0.0 | 1.0 | 0.00 | 0.47 | 0.01 | 92 | 1011.2 |
| 20260831104904 | 67 | 21 | 0.0 | 1.0 | 0.00 | 0.47 | 0.01 | 92 | 1011.2 |
| 20260831103905 | 67 | 12 | 0.0 | 1.0 | 0.00 | 0.47 | 0.01 | 91 | 1011.3 |
| 20260831102904 | 67 | 23 | 0.0 | 1.0 | 0.00 | 0.47 | 0.01 | 90 | 1011.2 |
| 20260831102310 | 67 | 43 | 0.0 | 1.0 | 0.00 | 0.47 | 0.01 | 92 | 1010.8 |
| 20260831101905 | 67 | 24 | 0.0 | 2.0 | 0.00 | 0.47 | 0.01 | 90 | 1011.0 |
| 20260831100904 | 67 | 33 | 0.0 | 2.0 | 0.00 | 0.47 | 0.01 | 91 | 1010.9 |
| 20260831095939 | 67 | 43 | 0.0 | 1.0 | 0.00 | 0.47 | 0.01 | 92 | 1010.8 |
| 20260831095905 | 67 | 43 | 0.0 | 1.0 | 0.00 | 0.47 | 0.01 | 92 | 1010.8 |
| 20260831095110 | 68 | 42 | 0.0 | 2.0 | 0.00 | 0.47 | 0.01 | 93 | 1010.3 |
| 20260831095054 | 68 | 28 | 0.0 | 2.0 | 0.00 | 0.47 | 0.01 | 93 | 1010.5 |
| 20260831094904 | 68 | 36 | 0.0 | 1.0 | 0.00 | 0.47 | 0.01 | 92 | 1010.8 |
| 20260831093903 | 67 | 21 | 0.0 | 1.0 | 0.00 | 0.47 | 0.01 | 92 | 1010.7 |
| 20260831092942 | 68 | 42 | 0.0 | 2.0 | 0.00 | 0.47 | 0.01 | 93 | 1010.3 |
| 20260831092903 | 68 | 42 | 0.0 | 2.0 | 0.00 | 0.47 | 0.01 | 93 | 1010.3 |
| 20260831091905 | 68 | 39 | 0.0 | 2.0 | 0.00 | 0.47 | 0.01 | 94 | 1010.7 |
| 20260831091855 | 68 | 40 | 0.0 | 1.0 | 0.00 | 0.47 | 0.01 | 94 | 1010.5 |
| 20260831090903 | 68 | 30 | 0.0 | 1.0 | 0.00 | 0.47 | 0.01 | 93 | 1010.6 |
| 20260831085904 | 68 | 39 | 0.0 | 2.0 | 0.00 | 0.47 | 0.01 | 94 | 1010.7 |
| 20260831084904 | 68 | 40 | 0.0 | 1.0 | 0.00 | 0.47 | 0.01 | 94 | 1010.5 |
| 20260831084659 | 69 | 38 | 0.0 | 2.0 | 0.00 | 0.47 | 0.01 | 95 | 1010.8 |
| 20260831083904 | 69 | 49 | 0.0 | 3.0 | 0.00 | 0.47 | 0.01 | 95 | 1010.6 |
| 20260831082903 | 69 | 23 | 0.0 | 3.0 | 0.00 | 0.47 | 0.01 | 95 | 1010.7 |
| 20260831081903 | 69 | 38 | 0.0 | 2.0 | 0.00 | 0.47 | 0.01 | 95 | 1010.8 |
| 20260831080903 | 69 | 33 | 0.0 | 1.0 | 0.00 | 0.47 | 0.01 | 95 | 1010.6 |
| 20260831075904 | 69 | 45 | 0.0 | 2.0 | 0.00 | 0.47 | 0.01 | 95 | 1010.7 |
| 20260831074904 | 70 | 43 | 0.0 | 2.0 | 0.00 | 0.47 | 0.01 | 95 | 1010.7 |
| 20260831074306 | 70 | 3 | 0.0 | 1.0 | 0.00 | 0.47 | 0.01 | 95 | 1010.5 |
| 20260831073904 | 70 | 24 | 0.0 | 2.0 | 0.00 | 0.47 | 0.01 | 95 | 1010.7 |
| 20260831072904 | 70 | 23 | 0.0 | 2.0 | 0.00 | 0.47 | 0.01 | 95 | 1010.6 |
| 20260831071904 | 70 | 3 | 0.0 | 1.0 | 0.00 | 0.47 | 0.01 | 95 | 1010.5 |
| 20260831071105 | 70 | 0 | 0.0 | 0.0 | 0.00 | 0.47 | 0.01 | 95 | 1010.6 |
| 20260831070904 | 70 | 3 | 0.0 | 1.0 | 0.00 | 0.47 | 0.01 | 95 | 1010.4 |
| 20260831065905 | 70 | 0 | 0.0 | 1.0 | 0.00 | 0.47 | 0.01 | 95 | 1010.6 |
| 20260831064903 | 70 | 0 | 0.0 | 0.0 | 0.00 | 0.47 | 0.01 | 95 | 1010.6 |
| 20260831062903 | 70 | 4 | 0.0 | 1.0 | 0.00 | 0.47 | 0.01 | 95 | 1010.6 |
| 20260831061903 | 70 | 3 | 0.0 | 1.0 | 0.00 | 0.47 | 0.01 | 95 | 1010.6 |
| 20260831060904 | 70 | 0 | 0.0 | 0.0 | 0.00 | 0.47 | 0.01 | 95 | 1010.7 |
| 20260831060655 | 71 | 0 | 0.0 | 0.0 | 0.00 | 0.47 | 0.01 | 94 | 1010.7 |
| 20260831055903 | 70 | 0 | 0.0 | 0.0 | 0.00 | 0.47 | 0.01 | 95 | 1010.5 |
| 20260831054906 | 70 | 0 | 0.0 | 0.0 | 0.00 | 0.47 | 0.01 | 95 | 1010.3 |
| 20260831053903 | 71 | 0 | 0.0 | 0.0 | 0.00 | 0.47 | 0.01 | 94 | 1010.7 |
| 20260831053454 | 71 | 9 | 1.0 | 2.0 | 0.01 | 0.47 | 0.01 | 94 | 1010.6 |
| 20260831052903 | 71 | 3 | 0.0 | 1.0 | 0.01 | 0.47 | 0.01 | 94 | 1010.6 |
| 20260831051903 | 71 | 3 | 0.0 | 1.0 | 0.01 | 0.47 | 0.01 | 94 | 1010.6 |
| 20260831050904 | 71 | 9 | 1.0 | 2.0 | 0.01 | 0.47 | 0.01 | 94 | 1010.6 |
| 20260831050258 | 71 | 25 | 0.0 | 1.0 | 0.05 | 0.47 | 0.01 | 94 | 1010.8 |
| 20260831045904 | 71 | 23 | 0.0 | 1.0 | 0.01 | 0.47 | 0.01 | 94 | 1010.7 |
| 20260831044904 | 71 | 23 | 0.0 | 1.0 | 0.03 | 0.47 | 0.01 | 94 | 1010.8 |
| 20260831043904 | 71 | 25 | 0.0 | 1.0 | 0.05 | 0.47 | 0.01 | 94 | 1010.8 |
| 20260831043058 | 71 | 38 | 0.0 | 2.0 | 0.04 | 0.46 | 0.00 | 93 | 1010.9 |
| 20260831042906 | 71 | 0 | 0.0 | 0.0 | 0.04 | 0.46 | 0.00 | 93 | 1010.9 |
| 20260831041904 | 71 | 0 | 0.0 | 1.0 | 0.04 | 0.46 | 0.00 | 93 | 1010.9 |
| 20260831040905 | 71 | 38 | 0.0 | 2.0 | 0.04 | 0.46 | 0.00 | 93 | 1010.9 |
| 20260831035904 | 71 | 55 | 0.0 | 3.0 | 0.06 | 0.46 | 0.46 | 92 | 1010.9 |
| 20260831034904 | 71 | 50 | 1.0 | 4.0 | 0.03 | 0.42 | 0.42 | 92 | 1011.1 |
| 20260831033904 | 71 | 22 | 1.0 | 4.0 | 0.26 | 0.42 | 0.42 | 92 | 1011.1 |
| 20260831032905 | 71 | 43 | 1.0 | 3.0 | 0.40 | 0.42 | 0.42 | 92 | 1010.7 |
| 20260831031903 | 71 | 28 | 1.0 | 3.0 | 0.41 | 0.42 | 0.42 | 92 | 1010.8 |
| 20260831030903 | 71 | 315 | 0.0 | 3.0 | 0.40 | 0.41 | 0.41 | 92 | 1011.1 |
| 20260831025903 | 72 | 344 | 1.0 | 4.0 | 0.37 | 0.38 | 0.38 | 92 | 1010.9 |
| 20260831024904 | 71 | 264 | 2.0 | 5.0 | 0.33 | 0.34 | 0.34 | 92 | 1010.7 |
| 20260831023903 | 73 | 26 | 3.0 | 9.0 | 0.03 | 0.04 | 0.04 | 87 | 1011.1 |
| 20260831022906 | 76 | 352 | 0.0 | 6.0 | 0.01 | 0.02 | 0.02 | 85 | 1010.6 |
| 20260831021904 | 76 | 63 | 0.0 | 1.0 | 0.00 | 0.01 | 0.01 | 84 | 1010.2 |
| 20260831020904 | 76 | 0 | 0.0 | 0.0 | 0.00 | 0.01 | 0.01 | 83 | 1010.2 |
| 20260831015905 | 76 | 0 | 0.0 | 1.0 | 0.00 | 0.01 | 0.01 | 83 | 1010.4 |
| 20260831015056 | 78 | 9 | 0.0 | 1.0 | 0.00 | 0.01 | 0.01 | 78 | 1010.8 |
| 20260831014904 | 77 | 0 | 0.0 | 1.0 | 0.00 | 0.01 | 0.01 | 80 | 1010.6 |
| 20260831013904 | 77 | 9 | 0.0 | 1.0 | 0.00 | 0.01 | 0.01 | 79 | 1010.8 |
| 20260831012904 | 78 | 9 | 0.0 | 1.0 | 0.00 | 0.01 | 0.01 | 78 | 1010.8 |
| 20260831011906 | 78 | 322 | 0.0 | 2.0 | 0.00 | 0.01 | 0.01 | 76 | 1010.7 |
| 20260831011845 | 79 | 336 | 0.0 | 2.0 | 0.00 | 0.01 | 0.01 | 74 | 1010.4 |
| 20260831010903 | 78 | 0 | 0.0 | 0.0 | 0.00 | 0.01 | 0.01 | 76 | 1010.5 |
| 20260831005905 | 79 | 331 | 0.0 | 2.0 | 0.00 | 0.01 | 0.01 | 75 | 1010.5 |
| 20260831004903 | 79 | 336 | 0.0 | 2.0 | 0.00 | 0.01 | 0.01 | 74 | 1010.4 |
| 20260831003903 | 79 | 338 | 0.0 | 1.0 | 0.00 | 0.01 | 0.01 | 74 | 1010.4 |
| 20260831002904 | 79 | 306 | 0.0 | 1.0 | 0.00 | 0.01 | 0.01 | 73 | 1010.1 |
| 20260831001906 | 79 | 298 | 0.0 | 1.0 | 0.00 | 0.01 | 0.01 | 73 | 1010.1 |
| 20260831000903 | 79 | 0 | 0.0 | 1.0 | 0.00 | 0.01 | 0.01 | 73 | 1009.9 |
| 20260830235904 | 79 | 304 | 0.0 | 2.0 | 0.00 | 0.01 | 0.01 | 73 | 1010.0 |
| 20260830234903 | 79 | 303 | 1.0 | 3.0 | 0.00 | 0.01 | 0.01 | 72 | 1010.1 |
| 20260830233904 | 79 | 288 | 0.0 | 2.0 | 0.00 | 0.01 | 0.01 | 72 | 1010.2 |
| 20260830232904 | 79 | 270 | 0.0 | 3.0 | 0.00 | 0.01 | 0.01 | 71 | 1010.2 |